Content
SEND FEEDBACK

Daily
Averages
Monthly
Summary
Colombia

CORNEJO, COLOMBIA


Home > South America > Colombia
Elevation: 1014 feet     Latitude: 07 54N     Longitude: 072 36W

WEATHER
 
SELECT A DAY
Number of Records: 54,578;   Date Range: 2/26/97 - 7/11/14
 
SHARE

PRINT THIS DATA

[ ← Previous Day ]
WEATHER ALMANAC - JANUARY 31, 2013
[ Next Day → ]
[ °C ]   °F
Weather ElementAverageHighLow
Temperature79.3 °F89.6 °F (1:00 pm) (10:08 pm)
Dewpoint66.6 °F71.6 °F (10:00 pm) (7:00 pm)
Humidity63.4 %88 % (7:00 am)43 % (1:00 pm)
Barometer29.89 in30.00 in (9:00 am)29.73 in (4:00 pm)
Wind Speed5 mph10.4 mph (12:00 pm)
Weather ElementAverage
Visibility6.1 mi
Wind DirectionSSW (195.2 °)

Weather ElementTotal
Precipitation---
Heating Degree Days20.2 (Base 65)
Averaged from 23 records on January 31, 2013
WEATHER CONDITIONS BREAKOUT
WIND DIRECTION BREAKOUT
WEATHER BY HOUR - JANUARY 31, 2013
[ °C ]   °F
Local TimeTemperatureDewpointHumidityBarometerVisibilityWind DirectionWind SpeedGust SpeedPrecipitationEventsConditions
7:00 AM73.4 °F69.8 °F88 %29.98 in4.3 miVariable2.3 mphFogFog
8:00 AM75.2 °F69.8 °F83 %29.99 in4.3 miCalmMostly Cloudy
9:00 AM78.8 °F69.8 °F74 %30.00 in5.6 miNorth (360°)5.8 mphScattered Clouds
10:00 AM83.0 °F69.0 °F54 %29.88 in6.0 miNorth8.9 mphHaze
10:00 AM84.2 °F69.8 °F62 %30.00 in5.6 miNorth (360°)9.2 mphScattered Clouds
11:00 AM86.0 °F68.0 °F55 %29.99 in6.2 miNorth (360°)8.1 mphScattered Clouds
12:00 PM86.0 °F69.8 °F58 %29.96 in6.2 miNorth (360°)10.4 mphScattered Clouds
1:00 PM89.0 °F69.0 °F43 %29.81 in10.0 miNorth6.7 mphPartly Cloudy
1:00 PM89.6 °F69.8 °F52 %29.92 in6.2 miNorth (360°)6.9 mphScattered Clouds
2:00 PM89.6 °F69.8 °F52 %29.88 in6.2 miNorth (360°)6.9 mphScattered Clouds
3:00 PM87.8 °F68.0 °F52 %29.86 in6.2 miNorth (360°)6.9 mphScattered Clouds
4:00 PM87.8 °F69.8 °F55 %29.84 in6.2 miNorth (360°)6.9 mphScattered Clouds
4:00 PM88.0 °F69.0 °F44 %29.73 in10.0 miNorth6.7 mphPartly Cloudy
5:00 PM86.0 °F69.8 °F58 %29.84 in6.2 miNorth (360°)6.9 mphScattered Clouds
6:00 PM84.2 °F69.8 °F62 %29.84 in6.2 miNorth (360°)6.9 mphScattered Clouds
7:00 PM81.0 °F70.0 °F62 %29.75 in10.0 miCalmPartly Cloudy
7:00 PM80.6 °F69.8 °F70 %29.86 in6.2 miCalmScattered Clouds
8:00 PM80.6 °F69.8 °F70 %29.88 in6.2 miCalmScattered Clouds
9:00 PM80.6 °F69.8 °F70 %29.92 in6.2 miCalmScattered Clouds
10:00 PM80.0 °F71.0 °F68 %29.81 in6.0 miCalmHaze
10:00 PM80.6 °F71.6 °F74 %29.92 in6.2 miCalmScattered Clouds
10:08 PM0.0 °F0.0 °F29.94 in2.5 miNorth (360°)9.2 mphRainRain
11:00 PM71.6 °F68.0 °F88 %29.94 in2.5 miSE (140°)6.9 mphRainRain
Hourly data recorded from SKCC, located miles away from Cornejo, Colombia







STORIES FROM OUR PARTNERS